Year,Month,Day,Hour,Minute,Value (Times are PST for temperature in C)
2015,04,02,07,43,3.90
2015,04,02,07,44,3.90
2015,04,02,07,45,3.90
2015,04,02,07,46,3.90
2015,04,02,07,47,3.90
2015,04,02,07,48,4.00
2015,04,02,07,49,4.00
2015,04,02,07,50,4.00
2015,04,02,07,51,4.10
2015,04,02,07,52,4.10
2015,04,02,07,53,4.10
2015,04,02,07,54,4.20
2015,04,02,07,55,4.20
2015,04,02,07,56,4.20
2015,04,02,07,57,4.30
2015,04,02,07,58,4.30
2015,04,02,07,59,4.30
2015,04,02,08,00,4.30
2015,04,02,08,01,4.30
2015,04,02,08,02,4.40
2015,04,02,08,03,4.40
2015,04,02,08,04,4.40
2015,04,02,08,05,4.50
2015,04,02,08,06,4.50
2015,04,02,08,07,4.50
2015,04,02,08,08,4.50
2015,04,02,08,09,4.60
2015,04,02,08,10,4.60
2015,04,02,08,11,4.60
2015,04,02,08,12,4.60
2015,04,02,08,13,4.60
2015,04,02,08,14,4.70
2015,04,02,08,15,4.70
2015,04,02,08,16,4.70
2015,04,02,08,17,4.70
2015,04,02,08,18,4.70
2015,04,02,08,19,4.70
2015,04,02,08,20,4.70
2015,04,02,08,21,4.70
2015,04,02,08,22,4.70
2015,04,02,08,23,4.70
2015,04,02,08,24,4.70
2015,04,02,08,25,4.70
2015,04,02,08,26,4.70
2015,04,02,08,27,4.70
2015,04,02,08,28,4.80
2015,04,02,08,29,4.80
2015,04,02,08,30,4.80
2015,04,02,08,31,4.90
2015,04,02,08,32,4.90
2015,04,02,08,33,4.90
2015,04,02,08,34,5.00
2015,04,02,08,35,5.00
2015,04,02,08,36,5.10
2015,04,02,08,37,5.10
2015,04,02,08,38,5.10
2015,04,02,08,39,5.10
2015,04,02,08,40,5.10
2015,04,02,08,41,5.10
2015,04,02,08,42,5.10
2015,04,02,08,43,5.10
2015,04,02,08,44,5.10
2015,04,02,08,45,5.10
2015,04,02,08,46,5.10
2015,04,02,08,47,5.10
2015,04,02,08,48,5.10
2015,04,02,08,49,5.10
2015,04,02,08,50,5.10
2015,04,02,08,51,5.10
2015,04,02,08,52,5.10
2015,04,02,08,53,5.10
2015,04,02,08,54,5.10
2015,04,02,08,55,5.10
2015,04,02,08,56,5.10
2015,04,02,08,57,5.20
2015,04,02,08,58,5.20
2015,04,02,08,59,5.20
2015,04,02,09,00,5.20
2015,04,02,09,01,5.20
2015,04,02,09,02,5.20
2015,04,02,09,03,5.20
2015,04,02,09,04,5.20
2015,04,02,09,05,5.20
2015,04,02,09,06,5.30
2015,04,02,09,07,5.30
2015,04,02,09,08,5.30
2015,04,02,09,09,5.30
2015,04,02,09,10,5.40
2015,04,02,09,11,5.40
2015,04,02,09,12,5.50
2015,04,02,09,13,5.60
2015,04,02,09,14,5.60
2015,04,02,09,15,5.70
2015,04,02,09,16,5.80
2015,04,02,09,17,5.90
2015,04,02,09,18,6.00
2015,04,02,09,19,6.10
2015,04,02,09,20,6.20
2015,04,02,09,21,6.30
2015,04,02,09,22,6.30
2015,04,02,09,23,6.40
2015,04,02,09,24,6.40
2015,04,02,09,25,6.50
2015,04,02,09,26,6.50
2015,04,02,09,27,6.60
2015,04,02,09,28,6.70
2015,04,02,09,29,6.80
2015,04,02,09,30,6.80
2015,04,02,09,31,6.80
2015,04,02,09,32,6.90
2015,04,02,09,33,6.90
2015,04,02,09,34,7.00
2015,04,02,09,35,7.00
2015,04,02,09,36,7.10
2015,04,02,09,37,7.10
2015,04,02,09,38,7.20
2015,04,02,09,39,7.20
2015,04,02,09,40,7.30
2015,04,02,09,41,7.30
2015,04,02,09,42,7.40
2015,04,02,09,43,7.40
2015,04,02,09,44,7.50
2015,04,02,09,45,7.50
2015,04,02,09,46,7.50
2015,04,02,09,47,7.50
2015,04,02,09,48,7.50
2015,04,02,09,49,7.50
2015,04,02,09,50,7.50
2015,04,02,09,51,7.50
2015,04,02,09,52,7.50
2015,04,02,09,53,7.40
2015,04,02,09,54,7.40
2015,04,02,09,55,7.40
2015,04,02,09,56,7.40
2015,04,02,09,57,7.40
2015,04,02,09,58,7.40
2015,04,02,09,59,7.40
2015,04,02,10,00,7.30
2015,04,02,10,01,7.30
2015,04,02,10,02,7.30
2015,04,02,10,03,7.20
2015,04,02,10,04,7.20
2015,04,02,10,05,7.20
2015,04,02,10,06,7.20
2015,04,02,10,07,7.20
2015,04,02,10,08,7.30
2015,04,02,10,09,7.40
2015,04,02,10,10,7.50
2015,04,02,10,11,7.60
2015,04,02,10,12,7.70
2015,04,02,10,13,7.80
2015,04,02,10,14,7.90
2015,04,02,10,15,8.10
2015,04,02,10,16,8.20
2015,04,02,10,17,8.30
2015,04,02,10,18,8.40
2015,04,02,10,19,8.50
2015,04,02,10,20,8.50
2015,04,02,10,21,8.60
2015,04,02,10,22,8.60
2015,04,02,10,23,8.70
2015,04,02,10,24,8.80
2015,04,02,10,25,8.80
2015,04,02,10,26,8.80
2015,04,02,10,27,8.80
2015,04,02,10,28,8.80
2015,04,02,10,29,8.90
2015,04,02,10,30,8.90
2015,04,02,10,31,8.90
2015,04,02,10,32,8.90
2015,04,02,10,33,8.80
2015,04,02,10,34,8.80
2015,04,02,10,35,8.70
2015,04,02,10,36,8.70
2015,04,02,10,37,8.80
2015,04,02,10,38,8.80
2015,04,02,10,39,8.80
2015,04,02,10,40,8.90
2015,04,02,10,41,8.90
2015,04,02,10,42,9.00
2015,04,02,10,43,9.10
2015,04,02,10,44,9.10
2015,04,02,10,45,9.20
2015,04,02,10,46,9.20
2015,04,02,10,47,9.20
2015,04,02,10,48,9.10
2015,04,02,10,49,9.00
2015,04,02,10,50,8.90
2015,04,02,10,51,8.80
2015,04,02,10,52,8.70
2015,04,02,10,53,8.60
2015,04,02,10,54,8.60
2015,04,02,10,55,8.50
2015,04,02,10,56,8.50
2015,04,02,10,57,8.40
2015,04,02,10,58,8.40
2015,04,02,10,59,8.30
2015,04,02,11,00,8.30
2015,04,02,11,01,8.30
2015,04,02,11,02,8.30
2015,04,02,11,03,8.30
2015,04,02,11,04,8.30
2015,04,02,11,05,8.30
2015,04,02,11,06,8.20
2015,04,02,11,07,8.20
2015,04,02,11,08,8.20
2015,04,02,11,09,8.20
2015,04,02,11,10,8.20
2015,04,02,11,11,8.20
2015,04,02,11,12,8.20
2015,04,02,11,13,8.20
2015,04,02,11,14,8.20
2015,04,02,11,15,8.20
2015,04,02,11,16,8.20
2015,04,02,11,17,8.20
2015,04,02,11,18,8.10
2015,04,02,11,19,8.10
2015,04,02,11,20,8.00
2015,04,02,11,21,7.90
2015,04,02,11,22,7.90
2015,04,02,11,23,7.90
2015,04,02,11,24,7.80
2015,04,02,11,25,7.80
2015,04,02,11,26,7.80
2015,04,02,11,27,7.80
2015,04,02,11,28,7.80
2015,04,02,11,29,7.80
2015,04,02,11,30,7.90
2015,04,02,11,31,7.90
2015,04,02,11,32,8.00
2015,04,02,11,33,8.00
2015,04,02,11,34,8.00
2015,04,02,11,35,8.00
2015,04,02,11,36,7.90
2015,04,02,11,37,7.90
2015,04,02,11,38,7.80
2015,04,02,11,39,7.80
2015,04,02,11,40,7.80
2015,04,02,11,41,7.70
2015,04,02,11,42,7.70
2015,04,02,11,43,7.70
2015,04,02,11,44,7.80
2015,04,02,11,45,7.70
2015,04,02,11,46,7.70
2015,04,02,11,47,7.70
2015,04,02,11,48,7.80
2015,04,02,11,49,7.80
2015,04,02,11,50,7.80
2015,04,02,11,51,7.90
2015,04,02,11,52,7.90
2015,04,02,11,53,8.00
2015,04,02,11,54,8.10
2015,04,02,11,55,8.10
2015,04,02,11,56,8.20
2015,04,02,11,57,8.30
2015,04,02,11,58,8.30
2015,04,02,11,59,8.40
2015,04,02,12,00,8.50
2015,04,02,12,01,8.60
2015,04,02,12,02,8.60
2015,04,02,12,03,8.70
2015,04,02,12,04,8.70
2015,04,02,12,05,8.70
2015,04,02,12,06,8.70
2015,04,02,12,07,8.70
2015,04,02,12,08,8.70
2015,04,02,12,09,8.70
2015,04,02,12,10,8.70
2015,04,02,12,11,8.60
2015,04,02,12,12,8.40
2015,04,02,12,13,8.30
2015,04,02,12,14,8.20
2015,04,02,12,15,8.10
2015,04,02,12,16,8.00
2015,04,02,12,17,7.90
2015,04,02,12,18,7.80
2015,04,02,12,19,7.70
2015,04,02,12,20,7.70
2015,04,02,12,21,7.70
2015,04,02,12,22,7.70
2015,04,02,12,23,7.70
2015,04,02,12,24,7.70
2015,04,02,12,25,7.70
2015,04,02,12,26,7.80
2015,04,02,12,27,7.80
2015,04,02,12,28,7.80
2015,04,02,12,29,7.90
2015,04,02,12,30,7.90
2015,04,02,12,31,8.10
2015,04,02,12,32,8.20
2015,04,02,12,33,8.30
2015,04,02,12,34,8.40
2015,04,02,12,35,8.50
2015,04,02,12,36,8.60
2015,04,02,12,37,8.70
2015,04,02,12,38,8.80
2015,04,02,12,39,8.80
2015,04,02,12,40,8.80
2015,04,02,12,41,8.90
2015,04,02,12,42,9.00
2015,04,02,12,43,9.00
2015,04,02,12,44,9.10
2015,04,02,12,45,9.20
2015,04,02,12,46,9.30
2015,04,02,12,47,9.30
2015,04,02,12,48,9.30
2015,04,02,12,49,9.40
2015,04,02,12,50,9.40
2015,04,02,12,51,9.40
2015,04,02,12,52,9.50
2015,04,02,12,53,9.60
2015,04,02,12,54,9.70
2015,04,02,12,55,9.70
2015,04,02,12,56,9.80
2015,04,02,12,57,9.80
2015,04,02,12,58,9.80
2015,04,02,12,59,9.80
2015,04,02,13,00,9.80
2015,04,02,13,01,9.70
2015,04,02,13,02,9.60
2015,04,02,13,03,9.60
2015,04,02,13,04,9.50
2015,04,02,13,05,9.50
2015,04,02,13,06,9.60
2015,04,02,13,07,9.70
2015,04,02,13,08,9.80
2015,04,02,13,09,9.90
2015,04,02,13,10,10.10
2015,04,02,13,11,10.20
2015,04,02,13,12,10.30
2015,04,02,13,13,10.40
2015,04,02,13,14,10.50
2015,04,02,13,15,10.60
2015,04,02,13,16,10.60
2015,04,02,13,17,10.60
2015,04,02,13,18,10.70
2015,04,02,13,19,10.80
2015,04,02,13,20,10.80
2015,04,02,13,21,10.90
2015,04,02,13,22,10.90
2015,04,02,13,23,10.90
2015,04,02,13,24,10.90
2015,04,02,13,25,10.90
2015,04,02,13,26,10.90
2015,04,02,13,27,10.90
2015,04,02,13,28,10.90
2015,04,02,13,29,10.90
2015,04,02,13,30,10.90
2015,04,02,13,31,10.80
2015,04,02,13,32,10.60
2015,04,02,13,33,10.60
2015,04,02,13,34,10.60
2015,04,02,13,35,10.50
2015,04,02,13,36,10.50
2015,04,02,13,37,10.60
2015,04,02,13,38,10.70
2015,04,02,13,39,10.80
2015,04,02,13,40,10.80
2015,04,02,13,41,10.70
2015,04,02,13,42,10.70
2015,04,02,13,43,10.60
2015,04,02,13,44,10.60
2015,04,02,13,45,10.60
2015,04,02,13,46,10.50
2015,04,02,13,47,10.50
2015,04,02,13,48,10.60
2015,04,02,13,49,10.60
2015,04,02,13,50,10.70
2015,04,02,13,51,10.90
2015,04,02,13,52,11.00
2015,04,02,13,53,11.20
2015,04,02,13,54,11.30
2015,04,02,13,55,11.50
2015,04,02,13,56,11.70
2015,04,02,13,57,11.90
2015,04,02,13,58,11.80
2015,04,02,13,59,11.60
2015,04,02,14,00,11.50
2015,04,02,14,01,11.50
2015,04,02,14,02,11.50
2015,04,02,14,03,11.50
2015,04,02,14,04,11.50
2015,04,02,14,05,11.50
2015,04,02,14,06,11.60
2015,04,02,14,07,11.60
2015,04,02,14,08,11.80
2015,04,02,14,09,11.80
2015,04,02,14,10,11.90
2015,04,02,14,11,11.90
2015,04,02,14,12,12.00
2015,04,02,14,13,12.00
2015,04,02,14,14,11.90
2015,04,02,14,15,11.90
2015,04,02,14,16,12.00
2015,04,02,14,17,12.00
2015,04,02,14,18,12.00
2015,04,02,14,19,12.00
2015,04,02,14,20,11.90
2015,04,02,14,21,11.90
2015,04,02,14,22,11.90
2015,04,02,14,23,11.90
2015,04,02,14,24,11.90
2015,04,02,14,25,12.00
2015,04,02,14,26,12.10
2015,04,02,14,27,12.10
2015,04,02,14,28,11.90
2015,04,02,14,29,11.90
2015,04,02,14,30,11.90
2015,04,02,14,31,11.90
2015,04,02,14,32,11.90
2015,04,02,14,33,12.00
2015,04,02,14,34,12.00
2015,04,02,14,35,12.00
2015,04,02,14,36,12.00
2015,04,02,14,37,12.00
2015,04,02,14,38,12.00
2015,04,02,14,39,12.00
2015,04,02,14,40,12.10
2015,04,02,14,41,12.30
2015,04,02,14,42,12.40
2015,04,02,14,43,12.50
2015,04,02,14,44,12.50
2015,04,02,14,45,12.40
2015,04,02,14,46,12.50
2015,04,02,14,47,12.50
2015,04,02,14,48,12.60
2015,04,02,14,49,12.70
2015,04,02,14,50,12.70
2015,04,02,14,51,12.70
2015,04,02,14,52,12.60
2015,04,02,14,53,12.40
2015,04,02,14,54,12.30
2015,04,02,14,55,12.30
2015,04,02,14,56,12.40
2015,04,02,14,57,12.50
2015,04,02,14,58,12.60
2015,04,02,14,59,12.50
2015,04,02,15,00,12.40
2015,04,02,15,01,12.30
2015,04,02,15,02,12.40
2015,04,02,15,03,12.40
2015,04,02,15,04,12.40
2015,04,02,15,05,12.20
2015,04,02,15,06,12.00
2015,04,02,15,07,11.90
2015,04,02,15,08,11.80
2015,04,02,15,09,11.70
2015,04,02,15,10,11.70
2015,04,02,15,11,11.70
2015,04,02,15,12,11.60
2015,04,02,15,13,11.60
2015,04,02,15,14,11.50
2015,04,02,15,15,11.40
2015,04,02,15,16,11.40
2015,04,02,15,17,11.50
2015,04,02,15,18,11.50
2015,04,02,15,19,11.60
2015,04,02,15,20,11.70
2015,04,02,15,21,11.70
2015,04,02,15,22,11.70
2015,04,02,15,23,11.80
2015,04,02,15,24,11.80
2015,04,02,15,25,11.80
2015,04,02,15,26,11.90
2015,04,02,15,27,11.90
2015,04,02,15,28,11.90
2015,04,02,15,29,12.00
2015,04,02,15,30,12.10
2015,04,02,15,31,12.20
2015,04,02,15,32,12.20
2015,04,02,15,33,12.20
2015,04,02,15,34,12.10
2015,04,02,15,35,12.10
2015,04,02,15,36,12.10
2015,04,02,15,37,12.20
2015,04,02,15,38,12.30
2015,04,02,15,39,12.30
2015,04,02,15,40,12.30
2015,04,02,15,41,12.30
2015,04,02,15,42,12.30
2015,04,02,15,43,12.30
2015,04,02,15,44,12.20
2015,04,02,15,45,12.10
2015,04,02,15,46,12.00
2015,04,02,15,47,12.00
2015,04,02,15,48,12.00
2015,04,02,15,49,11.90
2015,04,02,15,50,12.00
2015,04,02,15,51,12.00
2015,04,02,15,52,11.90
2015,04,02,15,53,11.90
2015,04,02,15,54,11.90
2015,04,02,15,55,11.80
2015,04,02,15,56,11.80
2015,04,02,15,57,11.80
2015,04,02,15,58,11.70
2015,04,02,15,59,11.70
2015,04,02,16,00,11.70
2015,04,02,16,01,11.70
2015,04,02,16,02,11.70
2015,04,02,16,03,11.70
2015,04,02,16,04,11.60
2015,04,02,16,05,11.70
2015,04,02,16,06,11.70
2015,04,02,16,07,11.70
2015,04,02,16,08,11.60
2015,04,02,16,09,11.60
2015,04,02,16,10,11.60
2015,04,02,16,11,11.60
2015,04,02,16,12,11.50
2015,04,02,16,13,11.50
2015,04,02,16,14,11.40
2015,04,02,16,15,11.30
2015,04,02,16,16,11.30
2015,04,02,16,17,11.30
2015,04,02,16,18,11.30
2015,04,02,16,19,11.30
2015,04,02,16,20,11.20
2015,04,02,16,21,11.20
2015,04,02,16,22,11.20
2015,04,02,16,23,11.10
2015,04,02,16,24,11.10
2015,04,02,16,25,11.00
2015,04,02,16,26,11.00
2015,04,02,16,27,11.00
2015,04,02,16,28,11.00
2015,04,02,16,29,11.00
2015,04,02,16,30,11.00
2015,04,02,16,31,11.00
2015,04,02,16,32,11.00
2015,04,02,16,33,10.90
2015,04,02,16,34,10.90
2015,04,02,16,35,10.90
2015,04,02,16,36,10.90
2015,04,02,16,37,10.90
2015,04,02,16,38,11.00
2015,04,02,16,39,11.00
2015,04,02,16,40,11.10
2015,04,02,16,41,11.10
2015,04,02,16,42,11.20
2015,04,02,16,43,11.20
2015,04,02,16,44,11.20
2015,04,02,16,45,11.20
2015,04,02,16,46,11.20
2015,04,02,16,47,11.20
2015,04,02,16,48,11.30
2015,04,02,16,49,11.30
2015,04,02,16,50,11.30
2015,04,02,16,51,11.30
2015,04,02,16,52,11.30
2015,04,02,16,53,11.30
2015,04,02,16,54,11.20
2015,04,02,16,55,11.20
2015,04,02,16,56,11.20
2015,04,02,16,57,11.20
2015,04,02,16,58,11.30
2015,04,02,16,59,11.30
2015,04,02,17,00,11.30
2015,04,02,17,01,11.30
2015,04,02,17,02,11.30
2015,04,02,17,03,11.30
2015,04,02,17,04,11.40
2015,04,02,17,05,11.40
2015,04,02,17,06,11.40
2015,04,02,17,07,11.40
2015,04,02,17,08,11.40
2015,04,02,17,09,11.40
2015,04,02,17,10,11.50
2015,04,02,17,11,11.50
2015,04,02,17,12,11.60
2015,04,02,17,13,11.60
2015,04,02,17,14,11.70
2015,04,02,17,15,11.70
2015,04,02,17,16,11.80
2015,04,02,17,17,11.80
2015,04,02,17,18,11.80
2015,04,02,17,19,11.80
2015,04,02,17,20,11.80
2015,04,02,17,21,11.80
2015,04,02,17,22,11.80
2015,04,02,17,23,11.80
2015,04,02,17,24,11.70
2015,04,02,17,25,11.70
2015,04,02,17,26,11.60
2015,04,02,17,27,11.60
2015,04,02,17,28,11.60
2015,04,02,17,29,11.60
2015,04,02,17,30,11.60
2015,04,02,17,31,11.60
2015,04,02,17,32,11.60
2015,04,02,17,33,11.50
2015,04,02,17,34,11.50
2015,04,02,17,35,11.40
2015,04,02,17,36,11.40
2015,04,02,17,37,11.40
2015,04,02,17,38,11.40
2015,04,02,17,39,11.40
2015,04,02,17,40,11.40
2015,04,02,17,41,11.40
2015,04,02,17,42,11.40
2015,04,02,17,43,11.40
2015,04,02,17,44,11.40
2015,04,02,17,45,11.40
2015,04,02,17,46,11.40
2015,04,02,17,47,11.40
2015,04,02,17,48,11.40
2015,04,02,17,49,11.40
2015,04,02,17,50,11.40
2015,04,02,17,51,11.30
2015,04,02,17,52,11.20
2015,04,02,17,53,11.20
2015,04,02,17,54,11.10
2015,04,02,17,55,11.10
2015,04,02,17,56,11.00
2015,04,02,17,57,11.00
2015,04,02,17,58,10.90
2015,04,02,17,59,10.80
2015,04,02,18,00,10.80
2015,04,02,18,01,10.80
2015,04,02,18,02,10.80
2015,04,02,18,03,10.80
2015,04,02,18,04,10.70
2015,04,02,18,05,10.70
2015,04,02,18,06,10.70
2015,04,02,18,07,10.70
2015,04,02,18,08,10.60
2015,04,02,18,09,10.60
2015,04,02,18,10,10.60
2015,04,02,18,11,10.50
2015,04,02,18,12,10.50
2015,04,02,18,13,10.40
2015,04,02,18,14,10.40
2015,04,02,18,15,10.40
2015,04,02,18,16,10.40
2015,04,02,18,17,10.40
2015,04,02,18,18,10.30
2015,04,02,18,19,10.30
2015,04,02,18,20,10.30
2015,04,02,18,21,10.30
2015,04,02,18,22,10.30
2015,04,02,18,23,10.30
2015,04,02,18,24,10.30
2015,04,02,18,25,10.20
2015,04,02,18,26,10.20
2015,04,02,18,27,10.20
2015,04,02,18,28,10.20
2015,04,02,18,29,10.20
2015,04,02,18,30,10.20
2015,04,02,18,31,10.20
2015,04,02,18,32,10.20
2015,04,02,18,33,10.30
2015,04,02,18,34,10.30
2015,04,02,18,35,10.30
2015,04,02,18,36,10.30
2015,04,02,18,37,10.30
2015,04,02,18,38,10.30
2015,04,02,18,39,10.30
2015,04,02,18,40,10.20
2015,04,02,18,41,10.20
2015,04,02,18,42,10.20
2015,04,02,18,43,10.20
2015,04,02,18,44,10.20
2015,04,02,18,45,10.10
2015,04,02,18,46,10.10
2015,04,02,18,47,10.10
2015,04,02,18,48,10.10
2015,04,02,18,49,10.00
2015,04,02,18,50,10.00
2015,04,02,18,51,10.00
2015,04,02,18,52,10.00
2015,04,02,18,53,10.00
2015,04,02,18,54,10.00
2015,04,02,18,55,9.90
2015,04,02,18,56,9.90
2015,04,02,18,57,9.90
2015,04,02,18,58,9.90
2015,04,02,18,59,9.90
2015,04,02,19,00,9.90
2015,04,02,19,01,9.90
2015,04,02,19,02,9.90
2015,04,02,19,03,9.90
2015,04,02,19,04,9.90
2015,04,02,19,05,9.90
2015,04,02,19,06,9.90
2015,04,02,19,07,9.80
2015,04,02,19,08,9.80
2015,04,02,19,09,9.80
2015,04,02,19,10,9.80
2015,04,02,19,11,9.80
2015,04,02,19,12,9.80
2015,04,02,19,13,9.80
2015,04,02,19,14,9.70
2015,04,02,19,15,9.70
2015,04,02,19,16,9.70
2015,04,02,19,17,9.70
2015,04,02,19,18,9.70
2015,04,02,19,19,9.70
2015,04,02,19,20,9.70
2015,04,02,19,21,9.60
2015,04,02,19,22,9.60
2015,04,02,19,23,9.60
2015,04,02,19,24,9.60
2015,04,02,19,25,9.60
2015,04,02,19,26,9.60
2015,04,02,19,27,9.60
2015,04,02,19,28,9.50
2015,04,02,19,29,9.50
2015,04,02,19,30,9.50
2015,04,02,19,31,9.50
2015,04,02,19,32,9.50
2015,04,02,19,33,9.40
2015,04,02,19,34,9.40
2015,04,02,19,35,9.40
2015,04,02,19,36,9.40
2015,04,02,19,37,9.30
2015,04,02,19,38,9.30
2015,04,02,19,39,9.30
2015,04,02,19,40,9.30
2015,04,02,19,41,9.30
2015,04,02,19,42,9.30
2015,04,02,19,43,9.20
2015,04,02,19,44,9.20
2015,04,02,19,45,9.20
2015,04,02,19,46,9.20
2015,04,02,19,47,9.20
2015,04,02,19,48,9.20
2015,04,02,19,49,9.10
2015,04,02,19,50,9.10
2015,04,02,19,51,9.10
2015,04,02,19,52,9.10
2015,04,02,19,53,9.00
2015,04,02,19,54,9.00
2015,04,02,19,55,9.00
2015,04,02,19,56,8.90
2015,04,02,19,57,8.90
2015,04,02,19,58,8.90
2015,04,02,19,59,8.90
2015,04,02,20,00,8.90
2015,04,02,20,01,8.90
2015,04,02,20,02,8.80
2015,04,02,20,03,8.80
2015,04,02,20,04,8.80
2015,04,02,20,05,8.80
2015,04,02,20,06,8.70
2015,04,02,20,07,8.70
2015,04,02,20,08,8.70
2015,04,02,20,09,8.70
2015,04,02,20,10,8.70
2015,04,02,20,11,8.70
2015,04,02,20,12,8.60
2015,04,02,20,13,8.60
2015,04,02,20,14,8.60
2015,04,02,20,15,8.60
2015,04,02,20,16,8.60
2015,04,02,20,17,8.60
2015,04,02,20,18,8.60
2015,04,02,20,19,8.50
2015,04,02,20,20,8.50
2015,04,02,20,21,8.50
2015,04,02,20,22,8.50
2015,04,02,20,23,8.60
2015,04,02,20,24,8.60
2015,04,02,20,25,8.60
2015,04,02,20,26,8.60
2015,04,02,20,27,8.60
2015,04,02,20,28,8.60
2015,04,02,20,29,8.60
2015,04,02,20,30,8.60
2015,04,02,20,31,8.70
2015,04,02,20,32,8.70
2015,04,02,20,33,8.70
2015,04,02,20,34,8.70
2015,04,02,20,35,8.60
2015,04,02,20,36,8.60
2015,04,02,20,37,8.60
2015,04,02,20,38,8.60
2015,04,02,20,39,8.60
2015,04,02,20,40,8.60
2015,04,02,20,41,8.60
2015,04,02,20,42,8.60
2015,04,02,20,43,8.50
2015,04,02,20,44,8.50
2015,04,02,20,45,8.50
2015,04,02,20,46,8.50
2015,04,02,20,47,8.50
2015,04,02,20,48,8.50
2015,04,02,20,49,8.40
2015,04,02,20,50,8.40
2015,04,02,20,51,8.40
2015,04,02,20,52,8.40
2015,04,02,20,53,8.40
2015,04,02,20,54,8.40
2015,04,02,20,55,8.40
2015,04,02,20,56,8.30
2015,04,02,20,57,8.30
2015,04,02,20,58,8.30
2015,04,02,20,59,8.30
2015,04,02,21,00,8.30
2015,04,02,21,01,8.30
2015,04,02,21,02,8.20
2015,04,02,21,03,8.20
2015,04,02,21,04,8.20
2015,04,02,21,05,8.20
2015,04,02,21,06,8.20
2015,04,02,21,07,8.20
2015,04,02,21,08,8.20
2015,04,02,21,09,8.20
2015,04,02,21,10,8.20
2015,04,02,21,11,8.10
2015,04,02,21,12,8.10
2015,04,02,21,13,8.10
2015,04,02,21,14,8.10
2015,04,02,21,15,8.10
2015,04,02,21,16,8.10
2015,04,02,21,17,8.10
2015,04,02,21,18,8.10
2015,04,02,21,19,8.10
2015,04,02,21,20,8.10
2015,04,02,21,21,8.10
2015,04,02,21,22,8.10
2015,04,02,21,23,8.10
2015,04,02,21,24,8.10
2015,04,02,21,25,8.10
2015,04,02,21,26,8.10
2015,04,02,21,27,8.10
2015,04,02,21,28,8.10
2015,04,02,21,29,8.10
2015,04,02,21,30,8.00
2015,04,02,21,31,8.00
2015,04,02,21,32,8.00
2015,04,02,21,33,8.00
2015,04,02,21,34,8.10
2015,04,02,21,35,8.10
2015,04,02,21,36,8.10
2015,04,02,21,37,8.10
2015,04,02,21,38,8.10
2015,04,02,21,39,8.00
2015,04,02,21,40,8.00
2015,04,02,21,41,8.00
2015,04,02,21,42,7.90
2015,04,02,21,43,7.90
2015,04,02,21,44,7.90
2015,04,02,21,45,7.90
2015,04,02,21,46,7.90
2015,04,02,21,47,7.90
2015,04,02,21,48,7.90
2015,04,02,21,49,7.90
2015,04,02,21,50,7.90
2015,04,02,21,51,7.90
2015,04,02,21,52,7.90
2015,04,02,21,53,7.90
2015,04,02,21,54,7.90
2015,04,02,21,55,8.00
2015,04,02,21,56,8.00
2015,04,02,21,57,8.00
2015,04,02,21,58,8.10
2015,04,02,21,59,8.10
2015,04,02,22,00,8.20
2015,04,02,22,01,8.30
2015,04,02,22,02,8.30
2015,04,02,22,03,8.40
2015,04,02,22,04,8.50
2015,04,02,22,05,8.60
2015,04,02,22,06,8.70
2015,04,02,22,07,8.70
2015,04,02,22,08,8.80
2015,04,02,22,09,8.80
2015,04,02,22,10,8.80
2015,04,02,22,11,8.80
2015,04,02,22,12,8.80
2015,04,02,22,13,8.80
2015,04,02,22,14,8.90
2015,04,02,22,15,8.90
2015,04,02,22,16,8.90
2015,04,02,22,17,8.90
2015,04,02,22,18,8.90
2015,04,02,22,19,8.90
2015,04,02,22,20,8.90
2015,04,02,22,21,8.90
2015,04,02,22,22,8.90
2015,04,02,22,23,8.90
2015,04,02,22,24,8.90
2015,04,02,22,25,8.90
2015,04,02,22,26,8.90
2015,04,02,22,27,8.90
2015,04,02,22,28,8.90
2015,04,02,22,29,8.90
2015,04,02,22,30,8.90
2015,04,02,22,31,8.90
2015,04,02,22,32,8.90
2015,04,02,22,33,8.80
2015,04,02,22,34,8.80
2015,04,02,22,35,8.80
2015,04,02,22,36,8.80
2015,04,02,22,37,8.80
2015,04,02,22,38,8.70
2015,04,02,22,39,8.70
2015,04,02,22,40,8.70
2015,04,02,22,41,8.70
2015,04,02,22,42,8.70
2015,04,02,22,43,8.60
2015,04,02,22,44,8.60
2015,04,02,22,45,8.60
2015,04,02,22,46,8.60
2015,04,02,22,47,8.60
2015,04,02,22,48,8.70
2015,04,02,22,49,8.70
2015,04,02,22,50,8.70
2015,04,02,22,51,8.70
2015,04,02,22,52,8.60
2015,04,02,22,53,8.60
2015,04,02,22,54,8.60
2015,04,02,22,55,8.60
2015,04,02,22,56,8.60
2015,04,02,22,57,8.60
2015,04,02,22,58,8.60
2015,04,02,22,59,8.60
2015,04,02,23,00,8.60
2015,04,02,23,01,8.60
2015,04,02,23,02,8.60
